RYR1676 EINN-EGPH

Flight info

Callsign RYR1676
Flight time 0h 54m
Altitude 31000
Route AGINI3A AGINI DCT ROTEV DCT GOTNA DCT BLACA/N0405F250 P600 TUNSO
Aircraft B738/M-SDE2E3FGHIRWXY/LB1

Departure

Time 2026-04-21 19:04
Airport Shannon Airport (EINN)

Arrival

Time 2026-04-21 19:58
Airport Edinburgh Airport (EGPH)
Time Latitude Longitude Altitude Speed Heading
2026-04-21 18:37 52.69359 -8.91871 14 ft 0 kts 225°
2026-04-21 18:39 52.69360 -8.91871 14 ft 0 kts 225°
2026-04-21 18:53 52.69366 -8.91860 14 ft 2 kts 225°
2026-04-21 18:53 52.69376 -8.91843 13 ft 2 kts 225°
2026-04-21 18:53 52.69387 -8.91815 12 ft 2 kts 264°
2026-04-21 18:54 52.69385 -8.91790 12 ft 2 kts 292°
2026-04-21 18:54 52.69377 -8.91769 12 ft 2 kts 321°
2026-04-21 18:54 52.69365 -8.91759 12 ft 0 kts 345°
2026-04-21 18:54 52.69359 -8.91757 12 ft 1 kts 349°
2026-04-21 18:55 52.69358 -8.91757 12 ft 0 kts 349°
2026-04-21 18:57 52.69367 -8.91759 12 ft 3 kts 349°
2026-04-21 18:57 52.69388 -8.91769 11 ft 5 kts 339°
2026-04-21 18:57 52.69429 -8.91841 12 ft 8 kts 292°
2026-04-21 18:58 52.69442 -8.91910 13 ft 9 kts 286°
2026-04-21 18:58 52.69461 -8.92031 14 ft 9 kts 283°
2026-04-21 18:58 52.69482 -8.92158 14 ft 11 kts 289°
2026-04-21 18:58 52.69512 -8.92280 14 ft 13 kts 295°
2026-04-21 18:59 52.69567 -8.92406 14 ft 14 kts 314°
2026-04-21 18:59 52.69637 -8.92517 14 ft 13 kts 315°
2026-04-21 18:59 52.69704 -8.92628 14 ft 15 kts 315°
2026-04-21 18:59 52.69783 -8.92756 14 ft 14 kts 315°
2026-04-21 19:00 52.69842 -8.92851 14 ft 8 kts 315°
2026-04-21 19:00 52.69862 -8.92884 15 ft 3 kts 315°
2026-04-21 19:00 52.69870 -8.92896 15 ft 0 kts 315°
2026-04-21 19:03 52.69880 -8.92913 16 ft 5 kts 315°
2026-04-21 19:03 52.69926 -8.92969 17 ft 11 kts 342°
2026-04-21 19:03 52.70001 -8.92900 15 ft 14 kts 52°
2026-04-21 19:03 52.70142 -8.92597 14 ft 69 kts 52°
2026-04-21 19:04 52.70596 -8.91636 13 ft 141 kts 52°
2026-04-21 19:04 52.71263 -8.90231 595 ft 158 kts 54°
2026-04-21 19:04 52.72021 -8.88967 1490 ft 168 kts 37°
2026-04-21 19:04 52.73140 -8.88289 2221 ft 180 kts 27°
2026-04-21 19:05 52.74358 -8.87564 2738 ft 195 kts 32°
2026-04-21 19:05 52.75640 -8.86640 3324 ft 210 kts 33°
2026-04-21 19:05 52.77031 -8.85615 3891 ft 229 kts 33°
2026-04-21 19:05 52.78305 -8.84081 4459 ft 233 kts 57°
2026-04-21 19:06 52.79155 -8.81772 5179 ft 240 kts 66°
2026-04-21 19:06 52.80018 -8.79407 6009 ft 248 kts 61°
2026-04-21 19:06 52.81022 -8.77106 6862 ft 255 kts 58°
2026-04-21 19:06 52.82117 -8.74793 7713 ft 260 kts 56°
2026-04-21 19:07 52.83251 -8.72441 8551 ft 264 kts 56°
2026-04-21 19:07 52.84002 -8.70875 9089 ft 267 kts 55°
2026-04-21 19:07 52.85547 -8.67629 10169 ft 273 kts 55°
2026-04-21 19:07 52.86716 -8.65159 10877 ft 280 kts 55°
2026-04-21 19:08 52.87926 -8.62592 11606 ft 286 kts 54°
2026-04-21 19:08 52.89150 -8.60002 12334 ft 291 kts 54°
2026-04-21 19:08 52.90395 -8.57364 13068 ft 295 kts 54°
2026-04-21 19:08 52.91669 -8.54663 13757 ft 301 kts 54°
2026-04-21 19:09 52.92948 -8.51948 14449 ft 305 kts 53°
2026-04-21 19:09 52.94265 -8.49153 15087 ft 311 kts 53°
2026-04-21 19:09 52.95594 -8.46327 15716 ft 316 kts 53°
2026-04-21 19:09 52.96955 -8.43426 16320 ft 322 kts 52°
2026-04-21 19:10 52.98337 -8.40481 16936 ft 327 kts 52°
2026-04-21 19:10 52.99722 -8.37527 17499 ft 332 kts 51°
2026-04-21 19:10 53.01154 -8.34467 18118 ft 336 kts 51°
2026-04-21 19:10 53.02573 -8.31429 18688 ft 340 kts 51°
2026-04-21 19:11 53.04030 -8.28306 19263 ft 345 kts 51°
2026-04-21 19:11 53.05505 -8.25140 19832 ft 349 kts 51°
2026-04-21 19:11 53.06980 -8.21972 20416 ft 353 kts 51°
2026-04-21 19:11 53.08482 -8.18736 20993 ft 356 kts 51°
2026-04-21 19:12 53.09489 -8.16563 21359 ft 358 kts 51°
2026-04-21 19:12 53.11515 -8.12184 22042 ft 364 kts 51°
2026-04-21 19:12 53.12540 -8.09965 22372 ft 366 kts 50°
2026-04-21 19:12 53.14624 -8.05448 23035 ft 371 kts 50°
2026-04-21 19:13 53.16208 -8.02010 23509 ft 375 kts 50°
2026-04-21 19:13 53.17798 -7.98554 23995 ft 379 kts 50°
2026-04-21 19:13 53.19397 -7.95071 24487 ft 382 kts 50°
2026-04-21 19:13 53.21000 -7.91572 24993 ft 384 kts 50°
2026-04-21 19:14 53.22088 -7.89196 25293 ft 387 kts 50°
2026-04-21 19:14 53.24267 -7.84440 25933 ft 390 kts 49°
2026-04-21 19:14 53.25358 -7.82056 26253 ft 392 kts 49°
2026-04-21 19:14 53.27003 -7.78459 26698 ft 395 kts 49°
2026-04-21 19:15 53.28668 -7.74812 27153 ft 397 kts 49°
2026-04-21 19:15 53.30900 -7.69915 27719 ft 401 kts 49°
2026-04-21 19:15 53.32583 -7.66215 28144 ft 403 kts 49°
2026-04-21 19:15 53.34302 -7.62429 28570 ft 406 kts 49°
2026-04-21 19:16 53.35440 -7.59921 28834 ft 407 kts 49°
2026-04-21 19:16 53.37179 -7.56083 29278 ft 409 kts 49°
2026-04-21 19:16 53.38890 -7.52300 29682 ft 411 kts 49°
2026-04-21 19:16 53.40619 -7.48475 30050 ft 413 kts 49°
2026-04-21 19:17 53.44692 -7.39441 30934 ft 418 kts 49°
2026-04-21 19:17 53.46438 -7.35557 31242 ft 420 kts 49°
2026-04-21 19:17 53.48207 -7.31617 31288 ft 425 kts 50°
2026-04-21 19:18 53.51734 -7.23733 31299 ft 421 kts 50°
2026-04-21 19:18 53.55227 -7.15905 31302 ft 422 kts 49°
2026-04-21 19:19 53.58727 -7.08036 31311 ft 420 kts 49°
2026-04-21 19:19 53.62210 -7.00188 31318 ft 421 kts 49°
2026-04-21 19:20 53.65689 -6.92322 31319 ft 421 kts 49°
2026-04-21 19:20 53.69165 -6.84440 31334 ft 421 kts 49°
2026-04-21 19:21 53.72641 -6.76529 31333 ft 421 kts 49°
2026-04-21 19:21 53.76125 -6.68579 31333 ft 421 kts 49°
2026-04-21 19:22 53.79592 -6.60640 31331 ft 420 kts 49°
2026-04-21 19:22 53.83026 -6.52753 31342 ft 419 kts 48°
2026-04-21 19:23 53.86475 -6.44804 31348 ft 419 kts 48°
2026-04-21 19:23 53.89890 -6.36911 31356 ft 418 kts 48°
2026-04-21 19:24 53.92773 -6.30236 31349 ft 421 kts 49°
2026-04-21 19:24 53.96762 -6.20953 31350 ft 419 kts 49°
2026-04-21 19:25 54.00193 -6.12956 31354 ft 418 kts 48°
2026-04-21 19:25 54.04106 -6.05919 31360 ft 403 kts 29°
2026-04-21 19:26 54.08096 -6.02032 31361 ft 397 kts 20°
2026-04-21 19:26 54.13888 -5.97417 31370 ft 396 kts 18°
2026-04-21 19:27 54.18872 -5.93476 31384 ft 395 kts 18°
2026-04-21 19:27 54.23860 -5.89437 31387 ft 396 kts 19°
2026-04-21 19:28 54.27959 -5.86075 31391 ft 396 kts 19°
2026-04-21 19:28 54.33732 -5.81313 31391 ft 394 kts 19°
2026-04-21 19:29 54.37816 -5.77926 31392 ft 394 kts 19°
2026-04-21 19:29 54.43566 -5.73155 31397 ft 395 kts 19°
2026-04-21 19:30 54.48475 -5.69060 31335 ft 386 kts 18°
2026-04-21 19:30 54.50862 -5.67053 31004 ft 381 kts 18°
2026-04-21 19:30 54.53228 -5.65065 30525 ft 379 kts 18°
2026-04-21 19:31 54.54798 -5.63749 30204 ft 377 kts 18°
2026-04-21 19:31 54.57877 -5.61040 29569 ft 377 kts 22°
2026-04-21 19:31 54.59383 -5.59491 29242 ft 378 kts 26°
2026-04-21 19:31 54.62215 -5.55882 28575 ft 380 kts 33°
2026-04-21 19:32 54.63542 -5.53958 28257 ft 379 kts 34°
2026-04-21 19:32 54.65516 -5.50969 27788 ft 377 kts 36°
2026-04-21 19:32 54.67452 -5.47975 27293 ft 375 kts 37°
2026-04-21 19:32 54.70010 -5.44014 26659 ft 371 kts 37°
2026-04-21 19:33 54.71279 -5.42056 26340 ft 369 kts 37°
2026-04-21 19:33 54.73206 -5.39093 25902 ft 366 kts 39°
2026-04-21 19:33 54.75092 -5.36202 25401 ft 364 kts 39°
2026-04-21 19:33 54.77592 -5.32374 24802 ft 359 kts 41°
2026-04-21 19:34 54.78822 -5.30494 24504 ft 357 kts 41°
2026-04-21 19:34 54.81272 -5.26745 23872 ft 353 kts 42°
2026-04-21 19:34 54.82522 -5.24831 23581 ft 351 kts 43°
2026-04-21 19:34 54.84907 -5.21172 22978 ft 348 kts 43°
2026-04-21 19:35 54.86133 -5.19304 22685 ft 346 kts 42°
2026-04-21 19:35 54.89976 -5.14411 21787 ft 343 kts 32°
2026-04-21 19:35 54.92764 -5.11854 21185 ft 340 kts 28°
2026-04-21 19:36 54.94172 -5.10660 20899 ft 338 kts 28°
2026-04-21 19:36 54.96987 -5.08307 20327 ft 335 kts 28°
2026-04-21 19:36 54.98355 -5.07159 20049 ft 334 kts 28°
2026-04-21 19:36 55.00425 -5.05404 19618 ft 331 kts 29°
2026-04-21 19:37 55.02486 -5.03639 19195 ft 329 kts 29°
2026-04-21 19:37 55.05211 -5.01286 18632 ft 325 kts 30°
2026-04-21 19:37 55.06544 -5.00130 18353 ft 323 kts 30°
2026-04-21 19:37 55.09187 -4.97798 17803 ft 318 kts 31°
2026-04-21 19:38 55.11044 -4.95845 17452 ft 310 kts 38°
2026-04-21 19:38 55.12720 -4.93562 17417 ft 300 kts 44°
2026-04-21 19:38 55.13717 -4.91984 17425 ft 301 kts 46°
2026-04-21 19:38 55.15234 -4.89440 17429 ft 303 kts 47°
2026-04-21 19:39 55.16740 -4.86885 17430 ft 302 kts 47°
2026-04-21 19:39 55.18607 -4.83739 17426 ft 303 kts 46°
2026-04-21 19:39 55.20124 -4.81204 17428 ft 303 kts 46°
2026-04-21 19:39 55.21654 -4.78655 17431 ft 302 kts 46°
2026-04-21 19:40 55.22667 -4.76970 17443 ft 302 kts 46°
2026-04-21 19:40 55.24183 -4.74456 17438 ft 303 kts 46°
2026-04-21 19:40 55.25717 -4.71897 17439 ft 303 kts 46°
2026-04-21 19:40 55.27237 -4.69349 17431 ft 302 kts 46°
2026-04-21 19:41 55.29249 -4.65974 17457 ft 303 kts 46°
2026-04-21 19:41 55.30751 -4.63455 17322 ft 299 kts 46°
2026-04-21 19:41 55.31757 -4.61768 17086 ft 295 kts 46°
2026-04-21 19:41 55.33715 -4.58482 16606 ft 290 kts 46°
2026-04-21 19:42 55.34677 -4.56865 16333 ft 289 kts 46°
2026-04-21 19:42 55.36114 -4.54446 15972 ft 289 kts 46°
2026-04-21 19:42 55.37564 -4.51997 15601 ft 292 kts 46°
2026-04-21 19:42 55.39030 -4.49525 15235 ft 289 kts 46°
2026-04-21 19:43 55.40474 -4.47089 14844 ft 286 kts 47°
2026-04-21 19:43 55.41891 -4.44696 14486 ft 282 kts 47°
2026-04-21 19:43 55.43754 -4.41546 14007 ft 278 kts 47°
2026-04-21 19:43 55.45133 -4.39209 13631 ft 275 kts 47°
2026-04-21 19:44 55.46062 -4.37632 13396 ft 275 kts 47°
2026-04-21 19:44 55.47442 -4.35285 13032 ft 279 kts 47°
2026-04-21 19:44 55.48822 -4.32939 12696 ft 277 kts 47°
2026-04-21 19:44 55.50672 -4.29798 12221 ft 273 kts 47°
2026-04-21 19:45 55.51570 -4.28270 11971 ft 272 kts 47°
2026-04-21 19:45 55.52924 -4.25964 11624 ft 268 kts 47°
2026-04-21 19:45 55.54241 -4.23719 11283 ft 265 kts 47°
2026-04-21 19:45 55.55997 -4.20719 10806 ft 261 kts 47°
2026-04-21 19:46 55.56858 -4.19247 10616 ft 262 kts 48°
2026-04-21 19:46 55.58166 -4.17005 10389 ft 261 kts 47°
2026-04-21 19:46 55.59461 -4.14791 10107 ft 256 kts 47°
2026-04-21 19:46 55.60726 -4.12622 9726 ft 254 kts 48°
2026-04-21 19:47 55.61988 -4.10459 9419 ft 250 kts 48°
2026-04-21 19:47 55.63215 -4.08351 9106 ft 247 kts 48°
2026-04-21 19:47 55.64447 -4.06231 8798 ft 250 kts 48°
2026-04-21 19:47 55.66116 -4.03355 8370 ft 250 kts 47°
2026-04-21 19:48 55.66935 -4.01946 8157 ft 247 kts 47°
2026-04-21 19:48 55.68165 -3.99828 7844 ft 244 kts 48°
2026-04-21 19:48 55.69767 -3.97068 7434 ft 239 kts 47°
2026-04-21 19:48 55.70956 -3.95013 7085 ft 236 kts 48°
2026-04-21 19:49 55.71734 -3.93668 6829 ft 234 kts 48°
2026-04-21 19:49 55.72876 -3.91693 6447 ft 231 kts 48°
2026-04-21 19:49 55.74021 -3.89710 6059 ft 228 kts 47°
2026-04-21 19:49 55.75516 -3.87118 5543 ft 225 kts 47°
2026-04-21 19:50 55.76253 -3.85840 5298 ft 222 kts 47°
2026-04-21 19:50 55.77703 -3.83323 4851 ft 217 kts 47°
2026-04-21 19:50 55.78418 -3.82082 4627 ft 214 kts 47°
2026-04-21 19:50 55.79825 -3.79634 4176 ft 209 kts 47°
2026-04-21 19:51 55.80832 -3.77852 3946 ft 201 kts 50°
2026-04-21 19:51 55.81420 -3.76608 3928 ft 188 kts 56°
2026-04-21 19:51 55.82133 -3.74732 3948 ft 183 kts 59°
2026-04-21 19:51 55.83009 -3.72224 3953 ft 172 kts 60°
2026-04-21 19:52 55.83420 -3.71041 3950 ft 163 kts 60°
2026-04-21 19:52 55.83988 -3.69397 3954 ft 149 kts 61°
2026-04-21 19:52 55.84684 -3.67374 3972 ft 143 kts 61°
2026-04-21 19:52 55.85029 -3.66369 3903 ft 145 kts 60°
2026-04-21 19:53 55.85560 -3.64827 3676 ft 144 kts 60°
2026-04-21 19:53 55.86243 -3.62838 3402 ft 140 kts 60°
2026-04-21 19:53 55.86581 -3.61856 3270 ft 140 kts 60°
2026-04-21 19:53 55.87251 -3.59905 3003 ft 137 kts 60°
2026-04-21 19:54 55.87585 -3.58930 2871 ft 138 kts 60°
2026-04-21 19:54 55.88081 -3.57480 2674 ft 138 kts 60°
2026-04-21 19:54 55.88586 -3.56010 2473 ft 138 kts 60°
2026-04-21 19:54 55.89079 -3.54568 2295 ft 138 kts 60°
2026-04-21 19:55 55.89559 -3.53170 2071 ft 126 kts 60°
2026-04-21 19:55 55.89993 -3.51903 1930 ft 115 kts 60°
2026-04-21 19:55 55.90411 -3.50685 1759 ft 115 kts 60°
2026-04-21 19:55 55.90962 -3.49072 1546 ft 116 kts 60°
2026-04-21 19:56 55.91243 -3.48246 1443 ft 116 kts 60°
2026-04-21 19:56 55.91660 -3.47015 1281 ft 116 kts 60°
2026-04-21 19:56 55.92085 -3.45782 1116 ft 116 kts 60°
2026-04-21 19:56 55.92648 -3.44130 897 ft 118 kts 59°
2026-04-21 19:57 55.92938 -3.43285 796 ft 118 kts 59°
2026-04-21 19:57 55.93368 -3.42023 619 ft 119 kts 60°
2026-04-21 19:57 55.93800 -3.40758 471 ft 120 kts 59°
2026-04-21 19:57 55.94384 -3.39043 242 ft 122 kts 59°
2026-04-21 19:58 55.94680 -3.38177 153 ft 119 kts 59°
2026-04-21 19:58 55.95124 -3.36869 142 ft 56 kts 58°
2026-04-21 19:58 55.95216 -3.36601 142 ft 22 kts 58°
2026-04-21 19:58 55.95259 -3.36462 142 ft 10 kts 77°
2026-04-21 19:59 55.95230 -3.36392 141 ft 6 kts 147°
2026-04-21 19:59 55.95195 -3.36356 141 ft 3 kts 148°
2026-04-21 19:59 55.95185 -3.36344 141 ft 0 kts 148°
2026-04-21 20:00 55.95176 -3.36334 141 ft 5 kts 147°
2026-04-21 20:00 55.95139 -3.36250 142 ft 10 kts 107°
2026-04-21 20:00 55.95113 -3.36105 141 ft 13 kts 108°
2026-04-21 20:00 55.95087 -3.35977 141 ft 9 kts 114°
2026-04-21 20:01 55.95058 -3.35878 141 ft 7 kts 119°
2026-04-21 20:01 55.95005 -3.35845 141 ft 6 kts 206°
2026-04-21 20:01 55.94969 -3.35867 141 ft 3 kts 192°
2026-04-21 20:01 55.94954 -3.35896 141 ft 3 kts 252°
2026-04-21 20:02 55.94948 -3.35935 141 ft 5 kts 253°
2026-04-21 20:02 55.94941 -3.35981 141 ft 0 kts 254°